This demonstration page uses our WeatherBlox Daily Observations layout. Learn more.

Left ArrowRight Arrow

Hourly Observations for April 22, 2021

Temp ( °F °C ) Dew Point ( °F °C ) Humidity (%) Winds ( mph kmh ) Pressure ( in mb ) Visibility ( mi km ) Precip ( " mm )
12:51 am 00:51 Clear 64 17.8 17 -8.3 16 16 N 5 7 29.67 1005 10 16.0934 0 0
1:51 am 01:51 Clear 62 16.7 18 -7.8 18 18 Calm 29.67 1005 10 16.0934 0 0
2:51 am 02:51 Clear 61 16.1 17 -8.3 18 18 WNW 5 7 29.67 1005 10 16.0934 0 0
3:51 am 03:51 Clear 58 14.4 17 -8.3 20 20 S 6 9 29.68 1005 10 16.0934 0 0
4:51 am 04:51 Clear 52 11.1 16 -8.9 24 24 ENE 5 7 29.71 1006 10 16.0934 0 0
5:51 am 05:51 Sunny 51 10.6 16 -8.9 25 25 Calm 29.74 1007 10 16.0934 0 0
6:51 am 06:51 Sunny 59 15 17 -8.3 19 19 Calm 29.75 1008 10 16.0934 0 0
7:51 am 07:51 Sunny 65 18.3 19 -7.2 17 17 E 5 7 29.76 1008 10 16.0934 0 0
8:51 am 08:51 Sunny 69 20.6 18 -7.8 14 14 NNE 3 6 29.75 1008 10 16.0934 0 0
9:51 am 09:51 Sunny 72 22.2 17 -8.3 12 12 E 8 13 29.75 1008 10 16.0934 0 0
10:51 am 10:51 Sunny 75 23.9 13 -10.6 9 9 VRB 3 6 29.73 1007 10 16.0934 0 0
11:51 am 11:51 Sunny 76 24.4 12 -11.1 9 9 VRB 3 6 29.7 1006 10 16.0934 0 0
12:51 pm 12:51 Sunny 76 24.4 12 -11.1 9 9 VRB 6 9 29.67 1005 10 16.0934 0 0
1:51 pm 13:51 Sunny 77 25 13 -10.6 9 9 VRB 5 7 29.64 1004 10 16.0934 0 0
2:51 pm 14:51 Sunny 79 26.1 13 -10.6 8 8 VRB 3 6 29.61 1003 10 16.0934 0 0
3:51 pm 15:51 Sunny 80 26.7 10 -12.2 7 7 WNW 23 37 29.58 1002 10 16.0934 0 0
4:24 pm 16:24 Sunny 81 27.2 9 -12.8 6 6 W 22 35 29.5 999 10 16.0934 0 0
4:51 pm 16:51 Sunny 80 26.7 9 -12.8 6 6 W 22 35 29.6 1002 10 16.0934 0 0
5:51 pm 17:51 Sunny 77 25 8 -13.3 7 7 NW 14 22 29.61 1003 10 16.0934 0 0
6:51 pm 18:51 Sunny 72 22.2 8 -13.3 8 8 WNW 18 30 29.62 1003 10 16.0934 0 0
7:51 pm 19:51 Clear 69 20.6 15 -9.4 12 12 NW 15 24 29.63 1004 10 16.0934 0 0
8:51 pm 20:51 Clear 66 18.9 18 -7.8 16 16 WNW 13 20 29.67 1005 10 16.0934 0 0
9:51 pm 21:51 Clear 65 18.3 18 -7.8 16 16 WNW 15 24 29.69 1005 10 16.0934 0 0
10:51 pm 22:51 Clear 63 17.2 20 -6.7 19 19 NW 9 15 29.71 1006 10 16.0934 0 0
11:51 pm 23:51 Clear 61 16.1 19 -7.2 20 20 NW 13 20 29.72 1007 10 16.0934 0 0

Powered by AerisWeather